Content
SEND FEEDBACK

Daily
Averages
Monthly
Summary
Dominican Republic

PUNTA CANA, DOMINICAN REPUBLIC


Home > Caribbean > Dominican Republic
Elevation: 40 feet     Latitude: 18 32N     Longitude: 068 22W

WEATHER
 
SELECT A DAY
Number of Records: 135,968;   Date Range: 6/30/96 - 10/29/14
 
SHARE

PRINT THIS DATA

[ ← Previous Day ]
WEATHER ALMANAC - JANUARY 31, 2013
[ Next Day → ]
[ °C ]   °F
Weather ElementAverageHighLow
Temperature78.6 °F83 °F (2:00 pm)73.4 °F (7:00 am)
Dewpoint71.9 °F73.4 °F (7:00 am)69.8 °F (1:00 am)
Humidity79.3 %100 % (7:00 am)62 % (11:00 am)
Barometer30.05 in30.10 in (11:00 am)30.01 in (4:00 am)
Wind Speed11.1 mph69.4 mph (8:00 am)
Weather ElementAverage
Visibility6.4 mi
Wind DirectionESE (110 °)

Weather ElementTotal
Precipitation---
Cooling Degree Days13.2 (Base 65)
Growing Degree Days28.2 (Base 50)
Averaged from 28 records on January 31, 2013
WEATHER CONDITIONS BREAKOUT
WIND DIRECTION BREAKOUT
WEATHER BY HOUR - JANUARY 31, 2013
[ °C ]   °F
Local TimeTemperatureDewpointHumidityBarometerVisibilityWind DirectionWind SpeedGust SpeedPrecipitationEventsConditions
1:00 AM77.0 °F69.8 °F78 %30.06 in6.2 miESE (110°)11.5 mphPartly Cloudy
2:00 AM77.0 °F69.8 °F78 %30.04 in6.2 miEast (100°)9.2 mphPartly Cloudy
3:00 AM77.0 °F69.8 °F78 %30.04 in6.2 miESE (110°)11.5 mphPartly Cloudy
4:00 AM75.2 °F71.6 °F89 %30.01 in6.2 miEast (100°)11.5 mphMostly Cloudy
6:00 AM75.2 °F71.6 °F89 %30.01 in6.2 miEast (90°)8.1 mphScattered Clouds
7:00 AM73.4 °F73.4 °F100 %30.04 in5.0 miEast (80°)6.9 mphRainRain
8:00 AM73.4 °F71.6 °F94 %30.04 in5.0 miEast (80°)6.9 mphMostly Cloudy
8:00 AM74.0 °F71.0 °F88 %30.06 in5.0 miEast (80°)69.4 mphMostly Cloudy
9:00 AM77.0 °F73.4 °F89 %30.06 in6.2 miEast (90°)6.9 mphMostly Cloudy
10:00 AM78.8 °F73.4 °F83 %30.09 in6.2 miESE (120°)9.2 mphScattered Clouds
11:00 AM82.0 °F71.0 °F62 %30.10 in10.0 miSE (130°)8.9 mphPartly Cloudy
11:00 AM82.4 °F71.6 °F70 %30.09 in6.2 miSE (130°)9.2 mphPartly Cloudy
12:00 PM82.4 °F71.6 °F70 %30.09 in6.2 miSE (140°)9.2 mphPartly Cloudy
1:00 PM82.4 °F71.6 °F70 %30.06 in6.2 miSE (140°)9.2 mphPartly Cloudy
2:00 PM82.4 °F71.6 °F70 %30.04 in6.2 miSE (140°)11.5 mphPartly Cloudy
2:00 PM83.0 °F72.0 °F62 %30.06 in10.0 miSE (140°)11.2 mphScattered Clouds
3:00 PM82.4 °F71.6 °F70 %30.04 in6.2 miSE (130°)8.1 mphPartly Cloudy
4:00 PM82.4 °F71.6 °F70 %30.01 in6.2 miESE (120°)5.8 mphPartly Cloudy
5:00 PM81.0 °F72.0 °F69 %30.03 in10.0 miESE (120°)8.9 mphScattered Clouds
5:00 PM80.6 °F71.6 °F74 %30.01 in6.2 miESE (120°)9.2 mphPartly Cloudy
6:00 PM80.6 °F71.6 °F74 %30.01 in6.2 miEast (90°)6.9 mphPartly Cloudy
7:00 PM78.8 °F73.4 °F83 %30.01 in6.2 miEast (80°)6.9 mphScattered Clouds
8:00 PM77.0 °F73.0 °F83 %30.04 in4.0 miEast (90°)11.2 mphRainLight Rain
8:00 PM77.0 °F73.4 °F89 %30.04 in3.7 miEast (90°)11.5 mphRainRain
9:00 PM77.0 °F73.4 °F89 %30.04 in6.2 miESE (120°)5.8 mphMostly Cloudy
10:00 PM77.0 °F71.6 °F83 %30.06 in6.2 miEast (100°)10.4 mphMostly Cloudy
11:00 PM78.0 °F72.0 °F78 %30.06 in10.0 miESE (120°)8.9 mphPartly Cloudy
11:00 PM77.0 °F73.4 °F89 %30.06 in6.2 miESE (120°)8.1 mphMostly Cloudy
Hourly data recorded from MDPC, located miles away from Punta Cana, Dominican Republic







STORIES FROM OUR PARTNERS